[[{"header":{"parameterUnit":"m.s-1","parameterCategory":2,"la1":30.2991,"la2":30.254,"lo1":-89.0895,"lo2":-89.0444,"dy":0.0017,"dx":0.0017,"nx":28,"ny":28,"refTime":"2025-07-28T03:00:00:Z","depth":"0","parameterNumber":2,"parameterNumberName":"U-component_of_CURRENTS"},"data":[0,0,0,0,0,0,0,0,0,0,0,0,0,0,0,0,0,0,0,0,0,0,0,0,0,0,0,0,0,0,0,0,0,0,0,0,0,0,0,0,0,0,0,0,0,0,0,0,0,0,0,0,0,0,0,0,0,0,0.3272,0.3272,0,0.3323,0.3324,0.3324,0.3362,0.3363,0.3363,0.3363,0.3449,0.3451,0.3453,0,0,0,0,0,0,0,0,0,0,0,0,0,0.3236,0.3236,0.3272,0.3272,0.3273,0.3323,0.3324,0.3325,0.3362,0.3363,0.3363,0.3363,0.3448,0.3451,0.3453,0,0,0,0,0,0,0,0,0,0,0,0,0,0.3266,0.3236,0.3272,0.3298,0.33,0.3323,0.3324,0.3325,0.3362,0.3363,0.3363,0.3363,0.3448,0.345,0.3453,0.3463,0,0,0.3463,0.3464,0,0,0,0,0,0,0,0,0.3264,0.3267,0.3293,0.3296,0.3299,0.3337,0.3343,0.3373,0.3362,0.3339,0.3363,0.3364,0.3414,0.342,0.3428,0.3467,0.347,0.3463,0.3465,0.3466,0.3467,0,0,0,0,0,0,0,0.3262,0.3266,0.3292,0.3294,0.3297,0.3317,0.3322,0.3349,0.3374,0.3341,0.3344,0.3349,0.3416,0.3425,0.3431,0.3472,0.3463,0.3465,0.3467,0.3468,0.354,0.354,0,0,0,0,0,0,0.3253,0.3263,0.3291,0.3294,0.3282,0.3317,0.3322,0.3324,0.3373,0.3381,0.3349,0.3351,0.342,0.3427,0.3434,0.3462,0.3466,0.3469,0.347,0.354,0.354,0.3541,0,0,0,0,0,0,0.3252,0.3255,0.3289,0.328,0.3286,0.3317,0.3319,0.3325,0.3337,0.3379,0.3387,0.3355,0.3421,0.343,0.3455,0.3465,0.347,0.3473,0.354,0.354,0.354,0.3509,0,0,0,0,0,0,0.3251,0.3254,0.3253,0.3279,0.3286,0.3303,0.3319,0.3326,0.3339,0.3342,0.3387,0.3395,0.3422,0.345,0.3457,0.3469,0.3475,0.354,0.354,0.354,0.351,0.3508,0.3507,0,0,0,0,0,0.3249,0.3244,0.3252,0.3256,0.3282,0.3303,0.3308,0.3332,0.3339,0.3344,0.3369,0.3394,0.3457,0.3452,0.3461,0.3474,0.354,0.354,0.354,0.3511,0.3508,0.3507,0,0,0,0,0,0,0.3205,0.3248,0.3258,0.3259,0.328,0.3309,0.3314,0.3329,0.3352,0.3355,0.3391,0.3401,0.3433,0.3452,0.3445,0.3495,0.3504,0.3506,0.3479,0.3477,0.3475,0.3492,0.3478,0,0,0,0,0,0.3199,0.3214,0.3248,0.3242,0.3257,0.3284,0.3295,0.3312,0.3335,0.3346,0.3372,0.3404,0.344,0.3455,0.3488,0.3508,0.3536,0.3523,0.3522,0.352,0.354,0.3584,0.3588,0.3541,0.3541,0.3541,0,0,0.317,0.32,0.3202,0.3236,0.3253,0.3268,0.3292,0.3306,0.3319,0.3352,0.337,0.3401,0.3445,0.3473,0.3488,0.349,0.3542,0.352,0.3519,0.354,0.3585,0.3589,0.3594,0.3541,0.3541,0.3541,0,0,0.3122,0.3157,0.3154,0.3186,0.3221,0.325,0.3253,0.3285,0.3306,0.3325,0.3359,0.3392,0.343,0.3469,0.3494,0.3501,0.3536,0.3509,0.3512,0.3553,0.3558,0.3562,0.3578,0.3584,0.3503,0.3503,0.3503,0,0.3068,0.3095,0.315,0.3164,0.3188,0.3239,0.3241,0.3273,0.3305,0.3319,0.3327,0.3397,0.3434,0.3483,0.3495,0.35,0.3521,0.3514,0.3552,0.3557,0.3562,0.3578,0.3585,0.3502,0.3502,0.3502,0.3502,0,0.3034,0.3059,0.3062,0.3107,0.3137,0.3152,0.3212,0.3234,0.3263,0.3291,0.3339,0.3389,0.343,0.345,0.3482,0.3538,0.3538,0.3546,0.3556,0.3565,0.358,0.3588,0.35,0.35,0.3501,0.3501,0,0,0.2895,0.3008,0.3008,0.3036,0.3118,0.3132,0.3172,0.3217,0.3235,0.3282,0.3305,0.3384,0.3413,0.3446,0.3488,0.3539,0.3589,0.3563,0.3566,0.3577,0.3667,0.3516,0.3511,0.3605,0.3606,0.3608,0.3654,0,0.2839,0.2862,0.2941,0.2963,0.2989,0.3074,0.3107,0.316,0.3209,0.3246,0.3323,0.3365,0.3411,0.3434,0.3494,0.3575,0.3615,0.3576,0.366,0.3662,0.3526,0.3516,0.3319,0.3331,0.3662,0.3663,0.3664,0,0.2793,0.2821,0.2834,0.2924,0.2938,0.2956,0.3027,0.3063,0.3149,0.3189,0.3254,0.3315,0.341,0.3441,0.3579,0.3552,0.3613,0.3671,0.3674,0.3557,0.3526,0.3382,0.3334,0.3251,0.3677,0.3676,0.3675,0,0.2704,0.2759,0.2769,0.2799,0.2891,0.2905,0.2947,0.303,0.3072,0.3154,0.3189,0.3294,0.3349,0.3458,0.3565,0.3586,0.3698,0.3729,0.3647,0.3637,0.3499,0.3471,0.3382,0.3822,0.3822,0.3821,0.3821,0,0.2654,0.2668,0.2724,0.2736,0.275,0.2828,0.2857,0.2916,0.2998,0.3048,0.3149,0.3209,0.3363,0.3442,0.3549,0.3595,0.3673,0.3649,0.364,0.3475,0.3447,0.3393,0.338,0.3823,0.3823,0.3822,0.3822,0,0.2601,0.2634,0.2657,0.2709,0.2724,0.2734,0.2819,0.2847,0.2919,0.2991,0.3021,0.3153,0.3242,0.3352,0.3509,0.3539,0.3502,0.3614,0.3388,0.3349,0.318,0.3172,0.3008,0.2935,0.3543,0.3539,0.3536,0,0.2598,0.2594,0.2625,0.2636,0.2666,0.2694,0.2728,0.2806,0.2847,0.2963,0.2995,0.3081,0.3135,0.3248,0.3293,0.3368,0.3354,0.324,0.3243,0.3127,0.3116,0.3042,0.299,0.3054,0.3047,0.3042,0.3038,0,0.2586,0.2582,0.2595,0.2605,0.2627,0.2659,0.2704,0.2719,0.2814,0.2847,0.2896,0.2932,0.2995,0.2956,0.3004,0.3054,0.3034,0.3128,0.3082,0.2774,0.2618,0.2554,0.3064,0.2989,0.2994,0.2998,0.3,0.3002,0.2582,0.258,0.2577,0.258,0.26,0.261,0.2596,0.264,0.2656,0.2662,0.2754,0.2714,0.2696,0.2718,0.2747,0.2612,0.27,0.2567,0.2586,0.2538,0.2387,0.2759,0.2619,0.2622,0.2624,0.2626,0.2628,0,0.2558,0.2548,0.256,0.2545,0.2519,0.2554,0.2568,0.252,0.2476,0.2496,0.2474,0.2353,0.2276,0.2283,0.2174,0.21,0.207,0.2048,0.1936,0.1934,0.2325,0.2222,0.1895,0.1895,0.1895,0.1895,0.1895,0.1895,0.2552,0.2521,0.2509,0.2451,0.2434,0.2371,0.2347,0.2286,0.2261,0.2108,0.1995,0.1966,0.195,0.1849,0.1733,0.1708,0.1649,0.1499,0.1601,0.1908,0.1959,0.2009,0.1908,0.152,0.152,0.1101,0.1098,0.1096]},{"header":{"parameterUnit":"m.s-1","parameterCategory":2,"la1":30.2991,"la2":30.254,"lo1":-89.0895,"lo2":-89.0444,"dy":0.0017,"dx":0.0017,"nx":28,"ny":28,"refTime":"2025-07-28T03:00:00:Z","depth":"0","parameterNumber":3,"parameterNumberName":"V-component_of_CURRENTS"},"data":[0,0,0,0,0,0,0,0,0,0,0,0,0,0,0,0,0,0,0,0,0,0,0,0,0,0,0,0,0,0,0,0,0,0,0,0,0,0,0,0,0,0,0,0,0,0,0,0,0,0,0,0,0,0,0,0,0,0,0.0178,0.0178,0,0.0155,0.0155,0.0155,0.0116,0.0116,0.0115,0.0114,0.0068,0.0068,0.0067,0,0,0,0,0,0,0,0,0,0,0,0,0,0.0193,0.0193,0.0178,0.0178,0.0178,0.0155,0.0155,0.0155,0.0116,0.0116,0.0115,0.0114,0.0069,0.0068,0.0067,0,0,0,0,0,0,0,0,0,0,0,0,0,0.018,0.0193,0.0178,0.0157,0.0154,0.0155,0.0155,0.0154,0.0117,0.0116,0.0115,0.0114,0.0069,0.0068,0.0067,0.0081,0,0,0.0064,0.0064,0,0,0,0,0,0,0,0,0.018,0.0179,0.016,0.0158,0.0156,0.0138,0.0143,0.0129,0.0117,0.013,0.0114,0.0113,0.0091,0.0088,0.0085,0.0079,0.0077,0.0064,0.0064,0.0063,0.0063,0,0,0,0,0,0,0,0.0181,0.018,0.0169,0.016,0.0157,0.0149,0.0146,0.014,0.0115,0.0129,0.0126,0.0125,0.0089,0.0086,0.0084,0.0076,0.0064,0.0063,0.0063,0.0062,0.0067,0.0068,0,0,0,0,0,0,0.0186,0.0181,0.0169,0.0168,0.0166,0.015,0.0146,0.0144,0.0116,0.0111,0.0126,0.0123,0.0088,0.0085,0.0082,0.0102,0.0063,0.0062,0.0062,0.0067,0.0068,0.0068,0,0,0,0,0,0,0.0187,0.0185,0.017,0.0174,0.0172,0.0151,0.0149,0.0144,0.0138,0.0114,0.0108,0.0124,0.0087,0.0083,0.0079,0.0099,0.0062,0.0061,0.0066,0.0067,0.0068,0.0138,0,0,0,0,0,0,0.0187,0.0186,0.0187,0.0175,0.0172,0.0177,0.015,0.0145,0.0139,0.0136,0.011,0.0105,0.0086,0.008,0.0078,0.0097,0.006,0.0065,0.0066,0.0068,0.0135,0.0142,0.0147,0,0,0,0,0,0.0188,0.0199,0.0187,0.0186,0.0174,0.0178,0.0177,0.0157,0.014,0.0146,0.0126,0.0106,0.0087,0.0081,0.0077,0.0097,0.0064,0.0066,0.0067,0.0132,0.014,0.0147,0,0,0,0,0,0,0.0217,0.0196,0.0183,0.0189,0.0185,0.0172,0.0175,0.0162,0.0151,0.0143,0.0116,0.0111,0.0116,0.0095,0.0089,0.0101,0.0072,0.0073,0.0122,0.0129,0.0135,0.0145,0.006,0,0,0,0,0,0.0222,0.0218,0.0204,0.0212,0.0208,0.0192,0.019,0.0178,0.0167,0.016,0.0144,0.0126,0.0122,0.0116,0.0107,0.0115,0.0104,0.0124,0.013,0.0135,0.014,0.0151,0.0158,0.0073,0.0073,0.0073,0,0,0.0238,0.0225,0.0225,0.0217,0.0209,0.0214,0.0188,0.019,0.0198,0.0158,0.0164,0.0149,0.0129,0.0138,0.0138,0.0122,0.0153,0.0137,0.0142,0.0144,0.0153,0.0161,0.0169,0.0074,0.0074,0.0074,0,0,0.0271,0.0254,0.026,0.0255,0.0244,0.0235,0.0237,0.0225,0.0222,0.0227,0.0202,0.0202,0.0188,0.0184,0.0179,0.0213,0.0187,0.0205,0.0242,0.0253,0.026,0.0267,0.0264,0.0269,0.0206,0.0206,0.0206,0,0.0294,0.0293,0.0268,0.0272,0.0272,0.0246,0.026,0.0258,0.0248,0.0253,0.0235,0.0234,0.0214,0.0235,0.0241,0.0229,0.0222,0.0219,0.0262,0.0268,0.0274,0.0269,0.0274,0.0209,0.0209,0.0209,0.0208,0,0.0326,0.0324,0.0331,0.0321,0.0321,0.033,0.0319,0.0323,0.0313,0.0308,0.0327,0.031,0.0307,0.0304,0.0279,0.031,0.0289,0.0273,0.0248,0.0287,0.0279,0.0283,0.0214,0.0213,0.0212,0.0211,0,0,0.0384,0.0359,0.0362,0.0361,0.0346,0.0353,0.0366,0.0376,0.0389,0.0386,0.0417,0.0407,0.0394,0.0387,0.0367,0.0372,0.0398,0.0336,0.0335,0.034,0.0413,0.0374,0.0375,0.0391,0.0392,0.0393,0.0393,0,0.042,0.0439,0.0414,0.0435,0.0443,0.0419,0.0433,0.0435,0.0435,0.0457,0.0455,0.0468,0.0428,0.0431,0.0434,0.0414,0.0412,0.0399,0.0369,0.0368,0.0334,0.0379,0.0369,0.0367,0.0397,0.0398,0.0398,0,0.0459,0.0465,0.0493,0.0484,0.0486,0.0493,0.0508,0.0518,0.0532,0.0532,0.0547,0.0538,0.0557,0.0514,0.0507,0.05,0.0458,0.0436,0.0435,0.0377,0.0337,0.0331,0.0372,0.0301,0.0404,0.0404,0.0403,0,0.0513,0.0518,0.0543,0.0542,0.0534,0.0543,0.0541,0.0544,0.0563,0.0586,0.0607,0.0615,0.0636,0.0601,0.055,0.0529,0.0539,0.0505,0.043,0.0426,0.04,0.0392,0.0374,0.0491,0.0491,0.0491,0.0491,0,0.0553,0.0567,0.0569,0.0581,0.0611,0.0586,0.0617,0.0614,0.0633,0.0679,0.0652,0.0698,0.0658,0.0656,0.059,0.0534,0.057,0.0447,0.0431,0.0422,0.0417,0.0337,0.0308,0.0491,0.0491,0.0491,0.0491,0,0.0582,0.0589,0.0616,0.0626,0.0634,0.0653,0.0661,0.0684,0.0688,0.0756,0.0771,0.0778,0.0772,0.0717,0.0672,0.0589,0.0492,0.0493,0.0478,0.046,0.0303,0.0279,0.0254,0.0223,0.0413,0.0412,0.0411,0,0.0585,0.0611,0.0656,0.0678,0.0677,0.0701,0.072,0.0721,0.0758,0.0814,0.0865,0.087,0.0902,0.0809,0.0667,0.0551,0.0483,0.0438,0.0388,0.0304,0.0266,0.0253,0.0228,0.0382,0.0381,0.0381,0.038,0,0.059,0.0621,0.0643,0.0708,0.0739,0.0778,0.0812,0.0855,0.0886,0.0952,0.1036,0.1064,0.0961,0.0852,0.0663,0.0561,0.0393,0.0416,0.0347,0.0258,0.0228,0.0187,0.0361,0.0374,0.0374,0.0375,0.0375,0.0375,0.0586,0.0613,0.0666,0.072,0.0774,0.0849,0.0891,0.0957,0.1045,0.1155,0.1173,0.1237,0.1038,0.0779,0.0613,0.0307,0.0339,0.0223,0.0206,0.0204,0.016,0.0308,0.0287,0.0287,0.0288,0.0288,0.0288,0,0.0571,0.0614,0.0669,0.0747,0.0819,0.0849,0.0949,0.1012,0.1142,0.1259,0.1343,0.1289,0.1043,0.0762,0.0355,0.0149,0.0076,0.0053,0.0039,0.0027,0.0173,0.0155,0.0084,0.0084,0.0084,0.0084,0.0084,0.0085,0.0561,0.0609,0.065,0.0766,0.0832,0.0932,0.0998,0.1118,0.1223,0.1367,0.1419,0.1435,0.1228,0.0579,0.0128,0.0015,-0.0095,-0.0128,-0.0166,-0.007,-0.0055,-0.0042,-0.0066,-0.0182,-0.0182,-0.0303,-0.0304,-0.0305]}],[{"header":{"parameterUnit":"m.s-1","parameterCategory":2,"la1":30.2991,"la2":30.254,"lo1":-89.0895,"lo2":-89.0444,"dy":0.0017,"dx":0.0017,"nx":28,"ny":28,"refTime":"2025-07-28T03:00:00:Z","depth":"2","parameterNumber":2,"parameterNumberName":"U-component_of_CURRENTS"},"data":[0,0,0,0,0,0,0,0,0,0,0,0,0,0,0,0,0,0,0,0,0,0,0,0,0,0,0,0,0,0,0,0,0,0,0,0,0,0,0,0,0,0,0,0,0,0,0,0,0,0,0,0,0,0,0,0,0,0,0.2044,0.2044,0,0.2049,0.2049,0.2049,0.2063,0.2064,0.2064,0.2065,0.2095,0.2095,0.2096,0,0,0,0,0,0,0,0,0,0,0,0,0,0.2028,0.2028,0.2044,0.2044,0.2045,0.2049,0.2049,0.2049,0.2063,0.2064,0.2065,0.2065,0.2095,0.2095,0.2096,0,0,0,0,0,0,0,0,0,0,0,0,0,0.2033,0.2029,0.2044,0.2054,0.2055,0.2049,0.2049,0.2049,0.2063,0.2064,0.2065,0.2065,0.2095,0.2095,0.2096,0.2085,0,0,0.2097,0.2098,0,0,0,0,0,0,0,0,0.2032,0.2033,0.2052,0.2053,0.2054,0.2058,0.2055,0.2063,0.2063,0.2058,0.2065,0.2066,0.2086,0.2087,0.2083,0.2086,0.2087,0.2098,0.2098,0.2098,0.2098,0,0,0,0,0,0,0,0.2032,0.2033,0.2044,0.2052,0.2054,0.2052,0.2053,0.2056,0.2067,0.2058,0.206,0.2063,0.2086,0.2083,0.2084,0.2088,0.2098,0.2098,0.2098,0.2099,0.2183,0.2184,0,0,0,0,0,0,0.2036,0.2033,0.2044,0.2045,0.2047,0.2052,0.2053,0.2055,0.2066,0.2069,0.2063,0.2064,0.2082,0.2084,0.2085,0.2153,0.2098,0.2099,0.2099,0.2181,0.2183,0.2185,0,0,0,0,0,0,0.2035,0.2036,0.2044,0.204,0.2042,0.2051,0.2053,0.2054,0.2073,0.207,0.2073,0.2083,0.2082,0.2085,0.2114,0.2151,0.2099,0.2099,0.2178,0.2181,0.2184,0.2236,0,0,0,0,0,0,0.2035,0.2036,0.2048,0.2041,0.2042,0.2054,0.2052,0.2054,0.2073,0.2076,0.2087,0.2089,0.2083,0.2114,0.2115,0.2151,0.21,0.2176,0.218,0.2183,0.2232,0.224,0.2248,0,0,0,0,0,0.2034,0.2043,0.2049,0.2051,0.2055,0.2055,0.2055,0.2063,0.2074,0.2083,0.21,0.209,0.2138,0.2115,0.2116,0.2153,0.2174,0.2179,0.2183,0.2229,0.2239,0.2247,0,0,0,0,0,0,0.2046,0.2045,0.2051,0.2062,0.2066,0.2058,0.2071,0.2076,0.2094,0.2108,0.2104,0.2108,0.2153,0.2146,0.2121,0.2191,0.2159,0.2164,0.2193,0.2203,0.2211,0.2221,0.21,0,0,0,0,0,0.2053,0.2062,0.206,0.2073,0.2075,0.2078,0.2084,0.2092,0.2102,0.2111,0.2123,0.2143,0.2166,0.2179,0.2195,0.2222,0.2229,0.2252,0.226,0.2266,0.2278,0.2312,0.2324,0.2199,0.2199,0.2199,0,0,0.2061,0.2065,0.2071,0.2077,0.2081,0.2091,0.2084,0.2102,0.2126,0.2112,0.2158,0.2171,0.2182,0.2221,0.2241,0.2221,0.2308,0.2272,0.2277,0.2286,0.2318,0.233,0.2341,0.2202,0.2202,0.2201,0,0,0.2072,0.2086,0.2091,0.21,0.2115,0.2118,0.2129,0.2139,0.2161,0.2196,0.2205,0.2238,0.2266,0.2282,0.2292,0.2352,0.2351,0.2368,0.2412,0.2445,0.2455,0.2464,0.2496,0.2508,0.2369,0.2369,0.2369,0,0.208,0.2084,0.2094,0.2105,0.2112,0.2134,0.214,0.2171,0.2196,0.2214,0.2223,0.2284,0.2294,0.234,0.2374,0.2369,0.2392,0.2371,0.2454,0.2463,0.2472,0.2502,0.2514,0.2372,0.2371,0.2371,0.2371,0,0.208,0.2099,0.2106,0.2125,0.2141,0.2152,0.2187,0.2224,0.2255,0.2274,0.2336,0.2358,0.2391,0.2409,0.2414,0.2485,0.2484,0.2461,0.2426,0.2487,0.2516,0.2527,0.2376,0.2375,0.2374,0.2373,0,0,0.2023,0.2091,0.2088,0.2099,0.2148,0.2146,0.2217,0.225,0.228,0.2342,0.2378,0.2446,0.2466,0.2482,0.2498,0.2537,0.2621,0.2539,0.2539,0.2563,0.271,0.2494,0.2485,0.2618,0.262,0.2622,0.2708,0,0.2004,0.2029,0.2071,0.2092,0.2096,0.2156,0.2203,0.2255,0.2306,0.2356,0.2416,0.2463,0.2493,0.2518,0.2569,0.2605,0.2654,0.2601,0.2653,0.2655,0.2449,0.2491,0.232,0.2363,0.2719,0.2721,0.2722,0,0.1945,0.1979,0.2008,0.2056,0.2062,0.2097,0.2154,0.2205,0.2303,0.2348,0.243,0.2478,0.2575,0.2576,0.2696,0.2668,0.2709,0.2732,0.2735,0.2521,0.2458,0.2359,0.237,0.2741,0.274,0.2738,0.2737,0,0.184,0.19,0.1925,0.1946,0.2032,0.2065,0.2109,0.2199,0.2239,0.2361,0.24,0.2514,0.2562,0.2658,0.2701,0.2733,0.2786,0.2825,0.2672,0.2659,0.2513,0.2479,0.2908,0.2908,0.2908,0.2907,0.2907,0,0.1766,0.1782,0.1887,0.19,0.192,0.2004,0.2048,0.2109,0.2212,0.2259,0.2396,0.2439,0.2588,0.2626,0.2704,0.2683,0.2789,0.2687,0.2661,0.2523,0.2491,0.2815,0.2803,0.2911,0.291,0.2909,0.2909,0,0.1673,0.1741,0.1766,0.1857,0.1875,0.19,0.2,0.2036,0.215,0.2224,0.2271,0.2395,0.2471,0.2544,0.2652,0.2633,0.2661,0.2617,0.2428,0.2376,0.2542,0.2533,0.2545,0.2538,0.2532,0.2527,0.2522,0,0.1661,0.166,0.1713,0.1739,0.1798,0.1858,0.1891,0.1992,0.204,0.2183,0.2198,0.229,0.2323,0.2348,0.2348,0.239,0.2502,0.2207,0.2226,0.2528,0.2505,0.2504,0.2502,0.2093,0.2086,0.208,0.2075,0,0.1642,0.1646,0.1685,0.1693,0.173,0.1783,0.1845,0.1843,0.1976,0.2017,0.2069,0.2104,0.2129,0.2053,0.202,0.2038,0.2191,0.2081,0.2459,0.2159,0.2094,0.2072,0.2088,0.2021,0.2027,0.2031,0.2033,0.2036,0.1648,0.1636,0.1649,0.1669,0.1701,0.1724,0.171,0.1764,0.178,0.1801,0.1883,0.1853,0.1867,0.1742,0.1691,0.1665,0.1855,0.1821,0.1845,0.1875,0.1754,0.1675,0.1505,0.1508,0.151,0.1511,0.1513,0,0.1626,0.1613,0.1622,0.1624,0.162,0.1675,0.1683,0.1642,0.1588,0.1607,0.1606,0.1459,0.1379,0.1419,0.1302,0.128,0.1346,0.1238,0.1345,0.1396,0.1443,0.1306,0.0937,0.0935,0.0933,0.0932,0,0,0.1614,0.1591,0.1569,0.1556,0.1562,0.1525,0.1505,0.1424,0.1392,0.1284,0.1226,0.1288,0.1343,0.1116,0.109,0.0997,0.1197,0.0954,0.1415,0.1591,0.1636,0.1769,0.1611,0,0,0,0,0]},{"header":{"parameterUnit":"m.s-1","parameterCategory":2,"la1":30.2991,"la2":30.254,"lo1":-89.0895,"lo2":-89.0444,"dy":0.0017,"dx":0.0017,"nx":28,"ny":28,"refTime":"2025-07-28T03:00:00:Z","depth":"2","parameterNumber":3,"parameterNumberName":"V-component_of_CURRENTS"},"data":[0,0,0,0,0,0,0,0,0,0,0,0,0,0,0,0,0,0,0,0,0,0,0,0,0,0,0,0,0,0,0,0,0,0,0,0,0,0,0,0,0,0,0,0,0,0,0,0,0,0,0,0,0,0,0,0,0,0,0.0301,0.0301,0,0.0274,0.0274,0.0273,0.0245,0.0244,0.0244,0.0244,0.0175,0.0173,0.0172,0,0,0,0,0,0,0,0,0,0,0,0,0,0.0323,0.0323,0.0301,0.0301,0.03,0.0274,0.0274,0.0273,0.0245,0.0244,0.0244,0.0243,0.0175,0.0173,0.0172,0,0,0,0,0,0,0,0,0,0,0,0,0,0.0306,0.0323,0.0301,0.0283,0.0282,0.0274,0.0274,0.0273,0.0245,0.0244,0.0244,0.0243,0.0176,0.0174,0.0171,0.0167,0,0,0.0164,0.0163,0,0,0,0,0,0,0,0,0.0307,0.0305,0.0286,0.0285,0.0283,0.0263,0.0256,0.0236,0.0245,0.0258,0.0244,0.0243,0.0201,0.0197,0.0192,0.0164,0.0161,0.0164,0.0163,0.0162,0.0161,0,0,0,0,0,0,0,0.0308,0.0306,0.0289,0.0286,0.0284,0.0276,0.0273,0.0252,0.0231,0.0257,0.0255,0.0253,0.02,0.0195,0.019,0.016,0.0164,0.0162,0.0161,0.016,0.0108,0.0108,0,0,0,0,0,0,0.0314,0.0307,0.029,0.0289,0.0295,0.0276,0.0272,0.0269,0.0232,0.0227,0.0254,0.0252,0.0199,0.0193,0.0188,0.0187,0.0162,0.016,0.0158,0.0108,0.0108,0.0108,0,0,0,0,0,0,0.0314,0.0313,0.0291,0.0298,0.0295,0.0276,0.0273,0.0269,0.0264,0.0231,0.0224,0.0253,0.0198,0.0191,0.0175,0.0184,0.0159,0.0157,0.0108,0.0108,0.0108,0.0182,0,0,0,0,0,0,0.0315,0.0313,0.0312,0.0298,0.0295,0.0291,0.0273,0.0269,0.0264,0.0262,0.0228,0.0221,0.0197,0.0179,0.0173,0.0181,0.0155,0.0108,0.0108,0.0108,0.018,0.0185,0.0189,0,0,0,0,0,0.0316,0.0318,0.0312,0.031,0.0294,0.0291,0.0289,0.0273,0.0265,0.0266,0.0245,0.0222,0.0174,0.0177,0.017,0.0178,0.0108,0.0108,0.0108,0.0178,0.0184,0.0189,0,0,0,0,0,0,0.0334,0.0315,0.0308,0.0307,0.0301,0.0287,0.0286,0.0278,0.0263,0.0259,0.0227,0.0219,0.0207,0.018,0.0184,0.016,0.0135,0.0134,0.019,0.0195,0.02,0.021,0.0153,0,0,0,0,0,0.0338,0.033,0.0318,0.0318,0.0316,0.0302,0.0299,0.029,0.0276,0.0269,0.0248,0.0221,0.0202,0.0189,0.0166,0.0157,0.014,0.0153,0.0158,0.0162,0.0164,0.0162,0.0168,0.0108,0.0108,0.0108,0,0,0.0347,0.0334,0.0331,0.0321,0.0314,0.0316,0.0299,0.0297,0.03,0.0264,0.026,0.0238,0.0203,0.0194,0.0185,0.0172,0.0168,0.0162,0.0167,0.0166,0.0163,0.0169,0.0174,0.0108,0.0108,0.0108,0,0,0.0366,0.0349,0.0352,0.0346,0.0337,0.0328,0.033,0.032,0.0315,0.0309,0.0285,0.0275,0.0239,0.0225,0.0211,0.0225,0.0194,0.0209,0.0242,0.0241,0.0246,0.025,0.0235,0.0238,0.0211,0.0211,0.0211,0,0.038,0.038,0.0356,0.0358,0.0357,0.0337,0.0348,0.034,0.0326,0.033,0.0313,0.0287,0.0257,0.0257,0.0256,0.0238,0.0225,0.0229,0.0249,0.0253,0.0257,0.024,0.0242,0.0214,0.0214,0.0214,0.0213,0,0.0402,0.0402,0.0404,0.0397,0.0391,0.0399,0.0383,0.0381,0.0372,0.0368,0.037,0.0341,0.0328,0.0314,0.0285,0.0295,0.0274,0.026,0.0243,0.0268,0.0247,0.0248,0.0219,0.0218,0.0217,0.0216,0,0,0.0433,0.0425,0.0426,0.0435,0.0414,0.042,0.0416,0.0421,0.0436,0.0419,0.0447,0.0408,0.0402,0.0384,0.0359,0.0349,0.0356,0.0314,0.0312,0.0311,0.0344,0.0282,0.0276,0.035,0.0351,0.0351,0.032,0,0.0464,0.0487,0.0467,0.049,0.05,0.0474,0.0479,0.0475,0.047,0.0489,0.0469,0.0479,0.0427,0.0432,0.0416,0.0382,0.0361,0.0365,0.0308,0.0306,0.0259,0.0277,0.0288,0.0257,0.0321,0.0321,0.0321,0,0.0486,0.0502,0.0532,0.0545,0.0548,0.0556,0.0566,0.057,0.0574,0.0572,0.0575,0.0561,0.0556,0.0508,0.046,0.0466,0.0403,0.0365,0.0363,0.028,0.0245,0.024,0.0256,0.0322,0.0322,0.0322,0.0322,0,0.0518,0.0543,0.0575,0.0576,0.0585,0.0596,0.0604,0.0601,0.0622,0.0634,0.0656,0.0642,0.0649,0.0586,0.0495,0.0484,0.0436,0.0414,0.0294,0.0289,0.0273,0.0264,0.0364,0.0364,0.0364,0.0364,0.0364,0,0.0542,0.0564,0.0599,0.0611,0.0656,0.0645,0.0685,0.0682,0.071,0.075,0.0712,0.0739,0.0667,0.0629,0.0533,0.042,0.0465,0.03,0.028,0.0295,0.029,0.0323,0.0319,0.0363,0.0363,0.0364,0.0364,0,0.0545,0.0568,0.0605,0.0646,0.0664,0.0691,0.0736,0.077,0.078,0.0834,0.0847,0.083,0.0767,0.0671,0.0572,0.0469,0.0367,0.0303,0.0316,0.0296,0.021,0.021,0.0182,0.018,0.0178,0.0176,0.0175,0,0.0542,0.0566,0.0632,0.0664,0.0681,0.0729,0.0765,0.0797,0.0841,0.0885,0.0926,0.0886,0.085,0.0678,0.0501,0.0327,0.0318,0.021,0.0177,0.021,0.0193,0.0196,0.0198,0.0189,0.0188,0.0187,0.0186,0,0.0538,0.0566,0.0605,0.0681,0.0731,0.0792,0.0856,0.0909,0.0955,0.0997,0.104,0.1018,0.0836,0.0666,0.0415,0.0296,0.0243,0.018,0.0239,0.0221,0.021,0.0195,0.0199,0.0177,0.0178,0.0179,0.0179,0.018,0.0536,0.0568,0.0635,0.0701,0.0767,0.0857,0.0914,0.0986,0.1066,0.1124,0.111,0.1056,0.0872,0.0529,0.0338,0.0136,0.0142,0.0078,0.0085,0.0091,0.0085,0.007,0.001,0.001,0.001,0.001,0.001,0,0.0537,0.059,0.0655,0.0748,0.0822,0.0859,0.0978,0.1034,0.1127,0.1145,0.1154,0.0955,0.0752,0.0539,0.0224,0.0033,0.0042,-0.0016,0.0052,0.0061,0.0069,0.0064,-0.0018,-0.0018,-0.0019,-0.0019,0,0,0.0544,0.0607,0.0652,0.0779,0.0847,0.0964,0.1035,0.1103,0.1143,0.1147,0.1103,0.1033,0.0789,0.0561,0.0324,0.0155,0.0149,0.0116,0.0155,0.0273,0.0283,0.0137,0.014,0,0,0,0,0]}],[{"header":{"parameterUnit":"m.s-1","parameterCategory":2,"la1":30.2991,"la2":30.254,"lo1":-89.0895,"lo2":-89.0444,"dy":0.0017,"dx":0.0017,"nx":28,"ny":28,"refTime":"2025-07-28T03:00:00:Z","depth":"4","parameterNumber":2,"parameterNumberName":"U-component_of_CURRENTS"},"data":[0,0,0,0,0,0,0,0,0,0,0,0,0,0,0,0,0,0,0,0,0,0,0,0,0,0,0,0,0,0,0,0,0,0,0,0,0,0,0,0,0,0,0,0,0,0,0,0,0,0,0,0,0,0,0,0,0,0,-0.0,0.0,0,0.0035,0.0035,0.0036,0.0105,0.0106,0.0107,0.0109,0.0184,0.0184,0.0185,0,0,0,0,0,0,0,0,0,0,0,0,0,0.0029,0.0028,-0.0,0.0,0.0001,0.0035,0.0035,0.0036,0.0104,0.0106,0.0108,0.0109,0.0183,0.0184,0.0185,0,0,0,0,0,0,0,0,0,0,0,0,0,0.0035,0.0027,-0.0,0.0039,0.0043,0.0035,0.0035,0.0036,0.0104,0.0106,0.0108,0.011,0.0183,0.0184,0.0185,0.0151,0,0,0.0189,0.0189,0,0,0,0,0,0,0,0,0.0034,0.0034,0.0033,0.0036,0.0041,0.0068,0.0073,0.0076,0.0103,0.0081,0.0109,0.0111,0.0147,0.0151,0.0153,0.0154,0.0157,0.0189,0.0189,0.019,0.019,0,0,0,0,0,0,0,0.0034,0.0033,0.0014,0.0033,0.0038,0.0068,0.007,0.0074,0.0102,0.0083,0.0088,0.0091,0.015,0.0151,0.0155,0.0159,0.0189,0.019,0.019,0.0191,0.0278,0.028,0,0,0,0,0,0,0.0025,0.0032,0.0012,0.0015,0.0043,0.0065,0.0069,0.0057,0.0102,0.011,0.009,0.0094,0.0148,0.0154,0.0158,0.0265,0.019,0.0191,0.0191,0.0276,0.0278,0.028,0,0,0,0,0,0,0.0025,0.0022,0.0011,0.0026,0.0026,0.0062,0.0049,0.0056,0.0105,0.0107,0.0116,0.0137,0.015,0.0156,0.021,0.0263,0.0191,0.0192,0.0274,0.0277,0.0279,0.0385,0,0,0,0,0,0,0.0026,0.0022,0.003,0.0024,0.0025,0.0033,0.0047,0.0056,0.0101,0.0109,0.0149,0.0155,0.0152,0.0208,0.0211,0.0263,0.0193,0.0272,0.0275,0.0278,0.038,0.0391,0.0401,0,0,0,0,0,0.0026,0.0025,0.003,0.0029,0.0028,0.0033,0.0038,0.007,0.0102,0.0123,0.0163,0.0157,0.023,0.021,0.0213,0.0267,0.0271,0.0275,0.0278,0.0375,0.0389,0.0401,0,0,0,0,0,0,0.0054,0.0031,0.0037,0.0033,0.0045,0.0046,0.0073,0.0093,0.0139,0.017,0.0174,0.0183,0.0249,0.0237,0.0215,0.0299,0.025,0.0254,0.0323,0.0336,0.0346,0.0357,0.0194,0,0,0,0,0,0.0056,0.0042,0.004,0.004,0.0053,0.0071,0.0088,0.0114,0.0141,0.0166,0.0202,0.0235,0.0255,0.0282,0.0296,0.0339,0.0296,0.0375,0.0386,0.0395,0.0405,0.0383,0.0392,0.0292,0.0292,0.0292,0,0,0.007,0.0053,0.0051,0.0045,0.0062,0.0085,0.0088,0.013,0.0167,0.0165,0.0253,0.0275,0.0273,0.0329,0.0358,0.0336,0.0398,0.04,0.0408,0.0413,0.0387,0.0397,0.0405,0.0295,0.0295,0.0294,0,0,0.0073,0.0077,0.007,0.0084,0.011,0.0125,0.0147,0.0188,0.0231,0.03,0.0309,0.0364,0.0413,0.0419,0.0423,0.0495,0.0451,0.0514,0.0585,0.0564,0.0572,0.0578,0.0521,0.0521,0.0524,0.0524,0.0525,0,0.0104,0.0078,0.0076,0.0083,0.01,0.015,0.017,0.0216,0.0279,0.0312,0.0351,0.0434,0.0449,0.0482,0.0531,0.0521,0.0493,0.0539,0.0578,0.0583,0.0588,0.0527,0.0526,0.053,0.0529,0.0529,0.0528,0,0.0102,0.0099,0.0106,0.0122,0.0142,0.0176,0.0224,0.029,0.0364,0.0407,0.0494,0.0529,0.0576,0.0597,0.0602,0.0648,0.061,0.0589,0.0545,0.0604,0.0536,0.0533,0.0538,0.0536,0.0534,0.0533,0,0,0.0172,0.0107,0.0128,0.0128,0.0169,0.0195,0.0259,0.0318,0.0375,0.0484,0.0537,0.0628,0.0677,0.0685,0.0697,0.0707,0.0729,0.0693,0.0689,0.0634,0.0667,0.0701,0.0699,0.0726,0.0726,0.0727,0.0599,0,0.0195,0.0167,0.014,0.0181,0.0193,0.0232,0.0278,0.035,0.0425,0.0502,0.057,0.064,0.0698,0.0741,0.0769,0.0739,0.073,0.0764,0.0618,0.0613,0.0636,0.0702,0.0729,0.0597,0.0596,0.0595,0.0595,0,0.0259,0.0214,0.0208,0.0192,0.0207,0.0247,0.033,0.0372,0.0465,0.0522,0.0615,0.067,0.0743,0.0764,0.077,0.0798,0.0756,0.0721,0.0714,0.0711,0.0645,0.0528,0.0589,0.0589,0.059,0.059,0.059,0,0.0348,0.0304,0.0286,0.0291,0.0275,0.0303,0.0325,0.0403,0.0449,0.0542,0.0593,0.0679,0.0742,0.0726,0.0748,0.0755,0.0707,0.0676,0.0643,0.0641,0.0595,0.0589,0.0638,0.0638,0.0639,0.0639,0.0639,0,0.0415,0.0422,0.033,0.0342,0.0368,0.0348,0.0411,0.045,0.0496,0.0562,0.0626,0.0697,0.075,0.0759,0.0727,0.0711,0.0691,0.067,0.0631,0.0639,0.064,0.059,0.0586,0.0634,0.0635,0.0636,0.0637,0,0.0527,0.0462,0.0454,0.0407,0.0414,0.0447,0.0458,0.049,0.0532,0.0606,0.0644,0.0731,0.078,0.0773,0.0734,0.07,0.0639,0.0611,0.0612,0.057,0.0572,0.0575,0.055,0.0551,0.0551,0.0552,0.0552,0,0.0546,0.0554,0.0522,0.0515,0.0497,0.0519,0.0533,0.0547,0.0573,0.0641,0.0678,0.0754,0.0816,0.076,0.076,0.0666,0.0656,0.0571,0.0609,0.061,0.0572,0.0575,0.0577,0.0553,0.0553,0.0553,0.0553,0,0.0584,0.0599,0.0562,0.0565,0.0574,0.0557,0.0573,0.06,0.0624,0.0674,0.073,0.0747,0.0792,0.0798,0.0743,0.0672,0.0608,0.0575,0.0573,0.0608,0.0612,0.0575,0.0577,0.0555,0.0555,0.0555,0.0555,0,0.0604,0.0596,0.0571,0.0571,0.0579,0.0562,0.0574,0.0584,0.0612,0.0691,0.0728,0.0768,0.0834,0.08,0.0745,0.0707,0.0686,0.0606,0.0602,0.06,0.0684,0.07,0.0652,0,0,0,0,0,0.0598,0.0577,0.0565,0.0537,0.0549,0.0553,0.0572,0.0575,0.064,0.0681,0.0697,0.0744,0.0739,0.0754,0.0722,0.0737,0.0659,0.069,0.0559,0.0565,0.0563,0.0662,0,0,0,0,0,0,0.0576,0.057,0.0546,0.0506,0.0499,0.0491,0.0499,0.053,0.0553,0.0639,0.0655,0.0702,0.0716,0.0774,0.0719,0.0715,0.0611,0.0717,0.0715,0.0566,0.0564,0.0563,0.0664,0,0,0,0,0]},{"header":{"parameterUnit":"m.s-1","parameterCategory":2,"la1":30.2991,"la2":30.254,"lo1":-89.0895,"lo2":-89.0444,"dy":0.0017,"dx":0.0017,"nx":28,"ny":28,"refTime":"2025-07-28T03:00:00:Z","depth":"4","parameterNumber":3,"parameterNumberName":"V-component_of_CURRENTS"},"data":[0,0,0,0,0,0,0,0,0,0,0,0,0,0,0,0,0,0,0,0,0,0,0,0,0,0,0,0,0,0,0,0,0,0,0,0,0,0,0,0,0,0,0,0,0,0,0,0,0,0,0,0,0,0,0,0,0,0,0.0375,0.0376,0,0.0394,0.0394,0.0394,0.0405,0.0406,0.0406,0.0406,0.0361,0.0359,0.0358,0,0,0,0,0,0,0,0,0,0,0,0,0,0.0358,0.0358,0.0375,0.0376,0.0376,0.0394,0.0394,0.0394,0.0405,0.0406,0.0406,0.0406,0.0361,0.0359,0.0358,0,0,0,0,0,0,0,0,0,0,0,0,0,0.0368,0.0358,0.0375,0.0385,0.0387,0.0394,0.0394,0.0394,0.0405,0.0406,0.0406,0.0406,0.0362,0.0359,0.0357,0.0336,0,0,0.0351,0.035,0,0,0,0,0,0,0,0,0.0367,0.0368,0.0383,0.0385,0.0386,0.04,0.0372,0.0372,0.0405,0.0396,0.0406,0.0406,0.0369,0.0366,0.0366,0.0334,0.0332,0.035,0.0349,0.0348,0.0348,0,0,0,0,0,0,0,0.0366,0.0367,0.038,0.0384,0.0386,0.0392,0.0394,0.0372,0.0377,0.0397,0.0398,0.0404,0.0369,0.0369,0.0365,0.0332,0.0351,0.0349,0.0347,0.0346,0.0217,0.0215,0,0,0,0,0,0,0.0368,0.0367,0.038,0.0381,0.038,0.0393,0.0394,0.0393,0.0379,0.0378,0.0403,0.0404,0.0372,0.0368,0.0364,0.0301,0.0348,0.0346,0.0345,0.0219,0.0216,0.0214,0,0,0,0,0,0,0.0367,0.0368,0.0379,0.0377,0.0379,0.0393,0.0391,0.0393,0.0396,0.0385,0.0383,0.0404,0.0372,0.0367,0.0332,0.0301,0.0345,0.0343,0.0221,0.0218,0.0215,0.0199,0,0,0,0,0,0,0.0366,0.0368,0.0378,0.0376,0.0379,0.038,0.0391,0.0394,0.04,0.0401,0.0385,0.0381,0.0372,0.0335,0.033,0.0299,0.0342,0.0224,0.022,0.0216,0.0202,0.0195,0.019,0,0,0,0,0,0.0365,0.0372,0.0378,0.0381,0.0389,0.038,0.0382,0.0392,0.0399,0.0396,0.0378,0.0382,0.0305,0.0333,0.0327,0.0294,0.0226,0.0221,0.0216,0.0205,0.0197,0.019,0,0,0,0,0,0,0.0362,0.0374,0.0381,0.0389,0.0385,0.0383,0.0392,0.0391,0.0377,0.0379,0.0365,0.0358,0.031,0.0301,0.0331,0.024,0.0262,0.0256,0.0255,0.0247,0.0241,0.027,0.034,0,0,0,0,0,0.0369,0.0383,0.038,0.0388,0.0389,0.039,0.0393,0.0392,0.0378,0.0374,0.0354,0.0325,0.0284,0.0269,0.0235,0.0196,0.0184,0.0165,0.0159,0.0154,0.017,0.0107,0.0098,0.0198,0.0198,0.0198,0,0,0.0373,0.038,0.0391,0.0391,0.0394,0.039,0.0392,0.0391,0.0379,0.0369,0.0342,0.0304,0.0267,0.0216,0.0193,0.0209,0.0115,0.0148,0.0144,0.0163,0.0101,0.0092,0.0084,0.0195,0.0195,0.0196,0,0,0.0381,0.039,0.0404,0.0399,0.0402,0.0396,0.0394,0.038,0.0368,0.0334,0.0311,0.026,0.0211,0.0173,0.0149,0.0088,0.0081,0.0065,0.0066,0.0004,-0.0004,-0.0011,-0.0045,-0.0054,0.0067,0.0067,0.0067,0,0.0382,0.0397,0.0403,0.0405,0.0408,0.0397,0.0396,0.0378,0.0349,0.033,0.0322,0.0224,0.019,0.0125,0.0099,0.0076,0.0052,0.0102,-0.0001,-0.0009,-0.0016,-0.0048,-0.0059,0.0066,0.0066,0.0066,0.0066,0,0.039,0.0406,0.0408,0.0412,0.0412,0.0405,0.0385,0.0366,0.0345,0.0318,0.0248,0.019,0.0143,0.0099,0.0084,0.0007,0.0009,-0.0004,0.0027,-0.0026,-0.0058,-0.0068,0.0064,0.0064,0.0065,0.0065,0,0,0.0373,0.0409,0.0411,0.0426,0.0413,0.0414,0.039,0.0361,0.0349,0.0285,0.0249,0.0155,0.0131,0.0101,0.0057,-0.0006,-0.0087,-0.0021,-0.0024,-0.0036,-0.0208,-0.0141,-0.0146,-0.012,-0.0122,-0.0123,-0.0211,0,0.0372,0.0393,0.0408,0.0423,0.0428,0.0419,0.0406,0.0378,0.0337,0.0292,0.0212,0.0166,0.0129,0.0107,0.0033,-0.0057,-0.0116,-0.0061,-0.0169,-0.0171,-0.0092,-0.0157,-0.0129,-0.0218,-0.0221,-0.0223,-0.0224,0,0.0367,0.0385,0.0409,0.0442,0.0446,0.0456,0.0443,0.0429,0.0363,0.033,0.0264,0.0209,0.0116,0.009,-0.0071,-0.0034,-0.0112,-0.0186,-0.0192,-0.0123,-0.0125,-0.0157,-0.0243,-0.0242,-0.024,-0.0239,-0.0238,0,0.0352,0.0385,0.0413,0.0418,0.0446,0.0463,0.0477,0.044,0.0429,0.0365,0.034,0.0228,0.0183,0.0051,-0.0073,-0.0081,-0.0249,-0.0278,-0.0293,-0.0289,-0.031,-0.0302,-0.0391,-0.0391,-0.0391,-0.0391,-0.0391,0,0.034,0.0363,0.042,0.0434,0.0471,0.0489,0.0508,0.0501,0.0474,0.0456,0.0377,0.033,0.0169,0.006,-0.0069,-0.0195,-0.0239,-0.0293,-0.0312,-0.0318,-0.0309,-0.0318,-0.0308,-0.0394,-0.0393,-0.0393,-0.0392,0,0.0329,0.0359,0.0394,0.0447,0.0471,0.0502,0.0555,0.0561,0.0544,0.0515,0.0505,0.04,0.027,0.0118,-0.0086,-0.0161,-0.0306,-0.0336,-0.0303,-0.0318,-0.031,-0.0301,-0.0381,-0.038,-0.0378,-0.0377,-0.0376,0,0.0329,0.0347,0.0413,0.0443,0.0481,0.0532,0.0569,0.059,0.0599,0.055,0.0537,0.0429,0.0342,0.0113,-0.0046,-0.0255,-0.0281,-0.0333,-0.0354,-0.0302,-0.0313,-0.0305,-0.0298,-0.0374,-0.0374,-0.0374,-0.0373,0,0.0325,0.0352,0.039,0.0455,0.0511,0.0558,0.0618,0.063,0.0644,0.0625,0.0561,0.0446,0.0309,0.0128,0.0001,-0.0164,-0.0294,-0.0321,-0.0326,-0.0346,-0.0295,-0.0305,-0.0299,-0.0369,-0.037,-0.037,-0.037,0,0.0329,0.0351,0.0407,0.0466,0.0527,0.0575,0.0603,0.0633,0.0646,0.0616,0.059,0.0437,0.0357,0.0175,0.0032,-0.0088,-0.0141,-0.0182,-0.0195,-0.0202,-0.0116,-0.0022,-0.0031,0,0,0,0,0,0.0332,0.0362,0.0415,0.0481,0.0541,0.0578,0.0634,0.0656,0.0672,0.064,0.0623,0.0496,0.0301,0.0206,0.0092,0.0034,-0.0168,-0.01,-0.0224,-0.0345,-0.035,-0.0272,0,0,0,0,0,0,0.0333,0.038,0.041,0.0483,0.0532,0.0599,0.0631,0.0642,0.0631,0.0625,0.0519,0.0483,0.0286,0.0361,0.0091,0.0054,-0.0034,-0.0191,-0.0192,-0.0342,-0.0346,-0.035,-0.0273,0,0,0,0,0]}]]